TimeCST,TemperatureF,Dew PointF,Humidity,Sea Level PressureIn,VisibilityMPH,Wind Direction,Wind SpeedMPH,Gust SpeedMPH,PrecipitationIn,Events,Conditions,WindDirDegrees,DateUTC
12:15 AM,37.4,37.4,100,29.86,5.0,North,4.6,-,N/A,,Overcast,350,2012-11-07 06:15:00
12:35 AM,37.4,37.4,100,29.87,4.0,North,5.8,-,N/A,,Overcast,360,2012-11-07 06:35:00
12:55 AM,37.4,37.4,100,29.88,3.0,North,5.8,-,N/A,,Overcast,350,2012-11-07 06:55:00
1:15 AM,37.4,37.4,100,29.88,3.0,NNW,6.9,-,N/A,,Overcast,340,2012-11-07 07:15:00
1:35 AM,37.4,37.4,100,29.89,4.0,North,5.8,-,N/A,,Overcast,350,2012-11-07 07:35:00
1:55 AM,37.4,37.4,100,29.90,4.0,North,5.8,-,N/A,,Overcast,350,2012-11-07 07:55:00
2:15 AM,35.6,35.6,100,29.90,3.0,North,6.9,-,N/A,,Overcast,350,2012-11-07 08:15:00
2:35 AM,37.4,37.4,100,29.91,4.0,NNW,6.9,-,N/A,,Overcast,340,2012-11-07 08:35:00
2:57 AM,37.4,37.4,100,29.91,4.0,North,6.9,-,N/A,,Overcast,350,2012-11-07 08:57:00
3:15 AM,37.4,37.4,100,29.92,4.0,North,8.1,-,N/A,,Overcast,360,2012-11-07 09:15:00
3:36 AM,37.4,37.4,100,29.93,4.0,North,9.2,-,N/A,,Overcast,10,2012-11-07 09:36:00
3:56 AM,37.4,37.4,100,29.93,4.0,North,8.1,-,N/A,,Overcast,360,2012-11-07 09:56:00
4:16 AM,37.4,37.4,100,29.94,4.0,North,9.2,-,N/A,,Overcast,360,2012-11-07 10:16:00
4:36 AM,37.4,37.4,100,29.95,4.0,North,9.2,-,N/A,,Overcast,360,2012-11-07 10:36:00
4:56 AM,37.4,37.4,100,29.95,4.0,North,8.1,-,N/A,,Overcast,360,2012-11-07 10:56:00
5:16 AM,37.4,37.4,100,29.96,4.0,North,6.9,-,N/A,,Overcast,360,2012-11-07 11:16:00
5:36 AM,37.4,37.4,100,29.97,4.0,North,8.1,-,N/A,,Overcast,360,2012-11-07 11:36:00
5:56 AM,37.4,37.4,100,29.98,4.0,North,5.8,-,N/A,,Overcast,360,2012-11-07 11:56:00
6:17 AM,37.4,37.4,100,29.99,4.0,North,6.9,-,N/A,,Overcast,350,2012-11-07 12:17:00
6:37 AM,37.4,37.4,100,30.00,4.0,North,6.9,-,N/A,,Overcast,350,2012-11-07 12:37:00
6:57 AM,37.4,37.4,100,30.01,2.5,North,5.8,-,N/A,,Overcast,350,2012-11-07 12:57:00
7:15 AM,37.4,37.4,100,30.02,2.0,North,5.8,-,N/A,,Overcast,350,2012-11-07 13:15:00
7:35 AM,37.4,37.4,100,30.03,1.8,North,6.9,-,N/A,,Overcast,350,2012-11-07 13:35:00
7:55 AM,37.4,37.4,100,30.04,1.5,NNW,4.6,-,N/A,,Overcast,340,2012-11-07 13:55:00
8:15 AM,37.4,37.4,100,30.05,1.8,North,6.9,-,N/A,,Overcast,360,2012-11-07 14:15:00
8:35 AM,37.4,37.4,100,30.06,1.5,North,8.1,-,N/A,,Overcast,350,2012-11-07 14:35:00
8:55 AM,37.4,37.4,100,30.06,1.8,North,6.9,-,N/A,,Overcast,350,2012-11-07 14:55:00
9:15 AM,37.4,37.4,100,30.07,2.0,North,6.9,-,N/A,,Overcast,350,2012-11-07 15:15:00
9:35 AM,37.4,37.4,100,30.07,2.0,North,8.1,-,N/A,,Overcast,360,2012-11-07 15:35:00
9:55 AM,37.4,37.4,100,30.08,1.8,North,5.8,-,N/A,,Overcast,360,2012-11-07 15:55:00
10:15 AM,37.4,37.4,100,30.08,2.0,North,3.5,-,N/A,,Overcast,350,2012-11-07 16:15:00
10:35 AM,37.4,37.4,100,30.09,2.5,North,3.5,-,N/A,,Overcast,360,2012-11-07 16:35:00
10:55 AM,37.4,37.4,100,30.09,2.5,North,4.6,-,N/A,,Overcast,350,2012-11-07 16:55:00
11:15 AM,39.2,39.2,100,30.09,3.0,North,5.8,-,N/A,,Overcast,350,2012-11-07 17:15:00
11:35 AM,39.2,39.2,100,30.08,4.0,NNW,3.5,-,N/A,,Overcast,330,2012-11-07 17:35:00
11:55 AM,39.2,37.4,93,30.08,4.0,Calm,Calm,-,N/A,,Overcast,0,2012-11-07 17:55:00
12:15 PM,41.0,37.4,87,30.08,7.0,North,4.6,-,N/A,,Overcast,350,2012-11-07 18:15:00
12:35 PM,41.0,39.2,93,30.08,5.0,NNW,4.6,-,N/A,,Overcast,340,2012-11-07 18:35:00
12:55 PM,41.0,39.2,93,30.08,7.0,Calm,Calm,-,N/A,,Overcast,0,2012-11-07 18:55:00
1:15 PM,42.8,37.4,81,30.08,7.0,NNW,3.5,-,N/A,,Overcast,340,2012-11-07 19:15:00
1:35 PM,42.8,35.6,76,30.07,10.0,Calm,Calm,-,N/A,,Overcast,0,2012-11-07 19:35:00
1:55 PM,42.8,35.6,76,30.07,10.0,Calm,Calm,-,N/A,,Overcast,0,2012-11-07 19:55:00
2:15 PM,42.8,33.8,70,30.08,10.0,Calm,Calm,-,N/A,,Overcast,0,2012-11-07 20:15:00
2:35 PM,42.8,35.6,76,30.08,10.0,Calm,Calm,-,N/A,,Overcast,0,2012-11-07 20:35:00
2:55 PM,42.8,35.6,76,30.08,10.0,Calm,Calm,-,N/A,,Overcast,0,2012-11-07 20:55:00
3:15 PM,41.0,35.6,81,30.08,10.0,Calm,Calm,-,N/A,,Overcast,0,2012-11-07 21:15:00
3:35 PM,42.8,33.8,70,30.09,10.0,Calm,Calm,-,N/A,,Overcast,0,2012-11-07 21:35:00
3:55 PM,42.8,33.8,70,30.10,10.0,West,3.5,-,N/A,,Overcast,270,2012-11-07 21:55:00
4:15 PM,41.0,33.8,76,30.10,10.0,Calm,Calm,-,N/A,,Overcast,0,2012-11-07 22:15:00
4:35 PM,41.0,35.6,81,30.10,10.0,Calm,Calm,-,N/A,,Overcast,0,2012-11-07 22:35:00
4:55 PM,41.0,35.6,81,30.10,10.0,West,4.6,-,N/A,,Overcast,260,2012-11-07 22:55:00
5:15 PM,41.0,37.4,87,30.10,10.0,Calm,Calm,-,N/A,,Overcast,0,2012-11-07 23:15:00
5:35 PM,41.0,35.6,81,30.10,10.0,WSW,3.5,-,N/A,,Overcast,250,2012-11-07 23:35:00
5:55 PM,41.0,35.6,81,30.11,10.0,West,3.5,-,N/A,,Overcast,270,2012-11-07 23:55:00
6:15 PM,41.0,35.6,81,30.12,10.0,WSW,3.5,-,N/A,,Overcast,250,2012-11-08 00:15:00
6:35 PM,41.0,37.4,87,30.12,10.0,SW,3.5,-,N/A,,Overcast,220,2012-11-08 00:35:00
6:55 PM,41.0,33.8,76,30.12,10.0,WSW,3.5,-,N/A,,Overcast,250,2012-11-08 00:55:00
7:15 PM,41.0,33.8,76,30.12,10.0,WSW,5.8,-,N/A,,Overcast,250,2012-11-08 01:15:00
7:35 PM,41.0,33.8,76,30.13,10.0,WNW,3.5,-,N/A,,Overcast,290,2012-11-08 01:35:00
7:55 PM,41.0,35.6,81,30.13,10.0,NW,5.8,-,N/A,,Overcast,310,2012-11-08 01:55:00
8:15 PM,41.0,35.6,81,30.13,10.0,Calm,Calm,-,N/A,,Overcast,0,2012-11-08 02:15:00
8:35 PM,39.2,35.6,87,30.14,10.0,Calm,Calm,-,N/A,,Overcast,0,2012-11-08 02:35:00
8:55 PM,41.0,33.8,76,30.14,10.0,Calm,Calm,-,N/A,,Overcast,0,2012-11-08 02:55:00
9:15 PM,39.2,35.6,87,30.14,10.0,Calm,Calm,-,N/A,,Overcast,0,2012-11-08 03:15:00
9:35 PM,39.2,35.6,87,30.14,10.0,Calm,Calm,-,N/A,,Overcast,0,2012-11-08 03:35:00
9:55 PM,39.2,37.4,93,30.13,10.0,SSE,3.5,-,N/A,,Overcast,150,2012-11-08 03:55:00
10:15 PM,39.2,37.4,93,30.14,10.0,Calm,Calm,-,N/A,,Overcast,0,2012-11-08 04:15:00
10:35 PM,39.2,35.6,87,30.13,10.0,Calm,Calm,-,N/A,,Overcast,0,2012-11-08 04:35:00
10:55 PM,39.2,37.4,93,30.13,10.0,South,4.6,-,N/A,,Overcast,190,2012-11-08 04:55:00
11:15 PM,41.0,32.0,70,30.13,10.0,Calm,Calm,-,N/A,,Overcast,0,2012-11-08 05:15:00
11:35 PM,41.0,32.0,70,30.14,10.0,Calm,Calm,-,N/A,,Overcast,0,2012-11-08 05:35:00
11:55 PM,39.2,33.8,81,30.13,10.0,South,4.6,-,N/A,,Overcast,190,2012-11-08 05:55:00